Regional Weather Roundup
Issued by NWS Newport/Morehead, NC

Current Version | Previous Version | Graphics & Text | Print | Product List | Glossary Off
Versions: 1 2 3 4 5 6 7 8 9 10 11 12 13 14 15 16 17 18 19 20 21 22 23 24 25 26 27 28 29 30 31 32 33 34 35 36 37 38 39 40 41 42 43 44 45 46 47 48 49 50

000
ASUS42 KMHX 200613
RWRMHX
WEATHER ROUNDUP FOR EASTERN NORTH CAROLINA
NATIONAL WEATHER SERVICE NEWPORT/MOREHEAD CITY NC
100 AM EST MON FEB 20 2017

NOTE: "FAIR" INDICATES FEW OR NO CLOUDS BELOW 12,000 FEET
WITH NO SIGNIFICANT WEATHER AND/OR OBSTRUCTIONS TO VISIBILITY

NCZ015>017-031-032-045>047-102-103-200700-
NORTH COAST

CITY           SKY/WX    TMP DP  RH WIND       PRES   REMARKS
EDENTON        CLEAR     49  45  85 CALM      30.06R
ELIZABETH CITY CLEAR     48  44  86 E5        30.05R
KITTY HAWK     NOT AVBL
MANTEO         CLEAR     45  44  95 CALM      30.05R

$$

NCZ045>047-081-094-103-104-200700-
CENTRAL COAST

CITY           SKY/WX    TMP DP  RH WIND       PRES   REMARKS
FRISCO         CLEAR     47  43  86 CALM      30.04S

$$

NCZ095-097-098-100-101-200700-
SOUTHERN COAST

CITY           SKY/WX    TMP DP  RH WIND       PRES   REMARKS
BEAUFORT       CLEAR     49  47  93 CALM      30.05S
CEDAR ISLAND   NOT AVBL
JACKSONVILLE   CLEAR     47  46  97 W3        30.06R
PINEY ISLAND   CLEAR    N/A N/A N/A CALM      30.04S
WILMINGTON     CLEAR     49  47  93 CALM      30.07R


$$

NCZ011>013-027>030-043-044-078>080-089-090>093-098-200700-
COASTAL PLAIN

CITY           SKY/WX    TMP DP  RH WIND       PRES   REMARKS
AHOSKIE          N/A     50  43  77 CALM      30.07R
CLINTON        PTCLDY    49  46  90 CALM      30.08S
ELIZABETHTOWN  CLEAR     56  47  70 NW3       30.08R
GOLDSBORO      PTCLDY    56  46  69 NW3       30.06R
GREENVILLE     PTCLDY    45  36  70 NW3       30.08R
HAVELOCK       CLEAR     49  44  83 CALM      30.06S
KENANSVILLE    NOT AVBL
KINSTON        PTCLDY    52  44  74 CALM      30.08R
NEW BERN       CLEAR     48  44  86 CALM      30.07R
RICHLANDS      CLEAR     44  43  96 CALM      30.07R
ROCKY MOUNT    CLEAR     54  44  69 NW6       30.07S
WASHINGTON     CLEAR     54  44  69 NW5       30.06R
WHITEVILLE     CLEAR     50  46  85 CALM      30.07S

$$

AMZ130-135-150-152-154-156-158-170-250-252-270-ANZ085-086-088-633-658-670-200700-
MARINE OBSERVATIONS

STATION/POSITION TIME  TEMP    WIND        PRES    WAVE   SWELL
                       AIR SEA DIR/SP/G            HT/PER HT/PER
                 (UTC) (F)     (DEG/KT/KT) (MB)    (FT/S) (FT/S)
CHESAPEAKE LIGHT NOT AVBL
64 E VA BEACH    0550   52 51  270/  8/ 10 1016.6    1/ 7   2/ 7
DUCK             0548   54 47  240/  5/  6 1016.9
2 E DUCK         0600      49                N/A     1/ 7
OREGON INLET     0542   53 51  230/  1/  2 1017.2
13E OREGON INLT  NOT AVBL
HATTERAS CG      0548   54 57  260/  4/  5 1016.8
DIAMOND BUOY     0550   63 67  340/  4/  6 1017.2    2/ 7   2/ 7
CAPE LOOKOUT     0600   56     300/  4/  5 1017.1
BEAUFORT LAB     0548   55 53  340/  3/  4 1016.5
30 SE NEW RVR IN 0508   63     330/ 10/ 12 1017.4
30 SE NEW RVR IN 0543      63                N/A     2/ 6
27 SE WRIGHTSVLE NOT AVBL
5 SE WRIGHTSVLE  0508   57 56  280/  6/  8 1017.5
225 S CAPE HAT   0550   70 71  350/ 17/ 19 1015.4    6/ 7   3/ 7
41 SE CHARLESTON 0450   67 69  350/  8/ 10 1018.0    1/10   2/10

$$



USA.gov is the U.S. government's official web portal to all federal, state and local government web resources and services.